FENGYUN 1C DEB

Satellite information

Favourite Embed

Satellite Type and Status

DEBRISIN ORBIT

Key statistics

Satellite FENGYUN 1C DEB at a glance.

Uptime

9495

Days in orbit

Revolutions

≈ 14.5

Per day

Orbit

SSO

Sun Synchronous Orbit

Inclination

98.5

Latest

Satellite identification and parameters

Extended collection of information and parameters for FENGYUN 1C DEB.

Object identification

Identified? True

Debris? True

Object name: FENGYUN 1C DEB

International designator: 1999-025DQM

Object number (NORAD): 35229

Object ID (CCSDS): 35229

Country: PEOPLES REPUBLIC OF CHINA (PRC)

Current information (Y/N): Y

RCS size: SMALL

Orbital parameters

Period: 99.237 minutes

Inclination: 98.4651 deg

SMA: 7100.288 km

Apoapsis: 762.551 km

Periapsis: 681.755 km

RAAN: 202.7173 deg

Eccentricy: 0.0056896

Argument of periapsis: 169.8775 deg

Mean anomaly: 190.3579 deg

Mean motion: 14.51071517 rev/day

Mean motion (dot): 0.00021769 rev/day2

B* drag term: 0.0053776 1/REarth

Two-line elements (TLE)

Creation date: May 7, 2025, 3:14 a.m.

Reference frame: TEME

Reference center: EARTH

Epoch: May 6, 2025, 10:28 a.m. UTC

TLE line 0: 0 FENGYUN 1C DEB

TLE line 1: 1 35229U 99025DQM 25126.43638777 .00021769 00000-0 53776-2 0 9992

TLE line 2: 2 35229 98.4651 202.7173 0056896 169.8775 190.3579 14.51071517613034

Live tracking on map

Real-time ground track for satellite FENGYUN 1C DEB.

In-orbit conjunctions

A list of the most updated potential collisions computed for object FENGYUN 1C DEB.

Target Orbit TCA Probability of collision Miss distance Type
COSMOS 2251 DEB LEO 2024-11-13 16:13:15 0.0001300608 45.0 (m) DEBRIS
FENGYUN 1C DEB SSO 2024-11-11 15:04:32 0.0002488223 28.0 (m) DEBRIS
CZ-4 DEB SSO 2024-08-01 02:25:37 0.0002814506 151.0 (m) DEBRIS

Associated space launch

Chinese polar orbiting meteorological satellite

FENGYUN 1C DEB was lifted into orbit during the mission ‘Long March 4B | Feng Yun 1C’, on board a Long March 4B space rocket.

The launch took place on May 10, 1999, 1:33 a.m. from Launch Complex 7.

For more information about the launch, click the button.

Launch to space Long March 4B | Feng Yun 1C
Long March 4B | Feng Yun 1C

Agency: N/A

Status: Launch Successful

Launch date: May 10, 1999, 1:33 a.m. UTC

Rocket: Long March 4B

Launch pad: Launch Complex 7

Location: Taiyuan Satellite Launch Center, People's Republic of China

...

Latest news about this satellite

There are no fresh news available about this satellite. Check back as we update our databases every day.


Newsletter sign-up

Weekly statistics, charts and insights to help you stay on top of the space industry.